This is the latest recevied weather packets stored in our database for station/object NR0A-4. If no packets are shown the sender has not sent any weather packets the latest 10 day(s).
| Time | Temp. | Humidity | Pressure | Rain* | Wind** | Luminosity | Snow |
|---|---|---|---|---|---|---|---|
| 1778172604 | 16.67° C | 39% | 1010 hPa | 0 mm | - | 828 W/m² | - |
| 1778172304 | 16.67° C | 41% | 1010 hPa | 0 mm | - | 816 W/m² | - |
| 1778172004 | 16.67° C | 41% | 1010 hPa | 0 mm | - | 814 W/m² | - |
| 1778171705 | 16.11° C | 42% | 1010 hPa | 0 mm | - | 802 W/m² | - |
| 1778171404 | 16.11° C | 46% | 1010.1 hPa | 0 mm | - | 793 W/m² | - |
| 1778171104 | 16.11° C | 49% | 1010.1 hPa | 0 mm | - | 786 W/m² | - |
| 1778170805 | 15.56° C | 44% | 1010.2 hPa | 0 mm | - | 779 W/m² | - |
| 1778170505 | 15.56° C | 44% | 1010.1 hPa | 0 mm | - | 770 W/m² | - |
| 1778170204 | 15.56° C | 44% | 1010 hPa | 0 mm | - | 761 W/m² | - |
| 1778169905 | 15.56° C | 51% | 1010 hPa | 0 mm | - | 749 W/m² | - |
| 1778169604 | 15.56° C | 46% | 1010 hPa | 0 mm | - | 740 W/m² | - |
| 1778169304 | 15.56° C | 51% | 1010 hPa | 0 mm | - | 726 W/m² | - |
| 1778169004 | 15.56° C | 49% | 1010.1 hPa | 0 mm | - | 717 W/m² | - |
| 1778168704 | 15° C | 46% | 1010.1 hPa | 0 mm | - | 705 W/m² | - |
| 1778168404 | 15.56° C | 45% | 1010.2 hPa | 0 mm | - | 700 W/m² | - |
| 1778168104 | 15.56° C | 45% | 1010.2 hPa | 0 mm | - | 682 W/m² | - |
| 1778167805 | 15.56° C | 50% | 1010.1 hPa | 0 mm | - | 668 W/m² | - |
| 1778167504 | 15° C | 49% | 1010.1 hPa | 0 mm | - | 659 W/m² | - |
| 1778167204 | 15° C | 50% | 1010 hPa | 0 mm | - | 647 W/m² | - |
| 1778166905 | 14.44° C | 48% | 1009.9 hPa | 0 mm | - | 636 W/m² | - |
| 1778166604 | 14.44° C | 50% | 1009.8 hPa | 0 mm | - | 624 W/m² | - |
| 1778166305 | 13.89° C | 49% | 1009.8 hPa | 0 mm | - | 608 W/m² | - |
| 1778166004 | 13.89° C | 50% | 1009.9 hPa | 0 mm | - | 594 W/m² | - |
| 1778165704 | 13.33° C | 55% | 1009.9 hPa | 0 mm | - | 582 W/m² | - |
| 1778165404 | 13.33° C | 56% | 1009.9 hPa | 0 mm | - | 568 W/m² | - |
* Rain latest hour (hover to see other rain measurements)
** Current wind speed in m/s (hover to see current wind gust speed)